Simultaneous Nadir Overpasses (SNOs) Predictions

Prediction of SNOs between GOES-16 and METOP-C Satellite Orbit:

Table of predicted SNOs for the next 14.0 days since TLE Epoch: 1/21/2024
Index Date Time (GOES-16) GOES-16 Lat,Lon METOP-C Lat,Lon Distance(km) Time Diff (sec)
1 01/22/2024 02:22:23 0.01, -75.20 0.34, -73.58 183.32 80
2 01/23/2024 14:43:54 -0.00, -75.23 0.63, -78.15 332.50 80
3 01/24/2024 14:20:34 -0.01, -75.23 -0.45, -73.14 237.49 80
4 01/26/2024 02:42:14 -0.01, -75.22 -0.57, -77.74 287.23 80
5 01/27/2024 02:18:55 -0.01, -75.23 0.56, -72.75 283.32 80
6 01/28/2024 14:37:44 0.02, -75.27 0.50, -77.29 230.67 80
7 01/29/2024 14:19:45 0.02, -75.29 -0.65, -72.30 340.45 80
8 01/31/2024 02:38:45 -0.02, -75.29 -0.37, -76.90 182.85 80
9 02/01/2024 02:15:24 -0.02, -75.31 0.72, -71.90 388.38 80
10 02/02/2024 14:34:15 0.02, -75.36 0.26, -76.46 124.91 80
11 02/03/2024 14:16:14 0.02, -75.38 -0.84, -71.45 446.62 80
